(514679) = 2005 WC75

Discovered at Mount Lemmon on 2005-09-30 by Mt. Lemmon Survey.

Orbit

Orbit type: Main Belt

Note: WebGL enabled browser required.

epoch2022-01-21.0
epoch JD2459600.5
perihelion date2021-02-15.35769
perihelion JD2459260.85769
argument of perihelion (°)14.28567
ascending node (°)39.01250
inclination (°)7.08915
eccentricity0.1299508
perihelion distance (AU)2.1239591
Tisserand w.r.t. Jupiter3.5
ΔV w.r.t. Earth (km/sec)9.4
semimajor axis (AU)2.4411943
mean anomaly (°)87.76515
mean daily motion (°/day)0.25840470
aphelion distance (AU)2.758
period (years)3.81
P-vector [x]0.59883815
P-vector [y]0.72213897
P-vector [z]0.34627761
Q-vector [x]-0.79709316
Q-vector [y]0.49547945
Q-vector [z]0.34517040
absolute magnitude18.16
phase slope0.15
uncertainty0
referenceMPO 701200
observations used110
oppositions8
arc length (days)7459
first opposition used2001
last opposition used2022
residual rms (arc-secs)0.82
perturbers coarse indicatorM-v
perturbers precise indicator003Ek
first observation date used2001-10-25.0
last observation date used2022-03-28.0
computer namePan

Observations

113 total observations over interval: 2001 10 25.11482 – 2022 03 28.327127
These data are available for download (format description).

Date (UT) J2000 RA J2000 Dec Magn Location Ref
2001 10 25.11482 01 08 06.34 +03 26 14.6 21.4 V 691 – Steward Observatory, Kitt Peak-Spacewatch MPS 386814
2001 10 25.13729 01 08 05.06 +03 26 13.3 21.3 V 691 – Steward Observatory, Kitt Peak-Spacewatch MPS 386814
2001 10 25.15861 01 08 03.82 +03 26 12.4 21.5 V 691 – Steward Observatory, Kitt Peak-Spacewatch MPS 386814
2005 09 30.41690 03 53 30.30 +20 04 32.7 20.9 V G96 – Mt. Lemmon Survey MPS 386814
2005 09 30.42248 03 53 30.30 +20 04 34.3 20.6 V G96 – Mt. Lemmon Survey MPS 386814
2005 09 30.42807 03 53 30.33 +20 04 35.6 20.7 V G96 – Mt. Lemmon Survey MPS 386814
2005 09 30.43373 03 53 30.37 +20 04 37.2 21.1 V G96 – Mt. Lemmon Survey MPS 386814
2005 10 28.31206 03 43 27.61 +21 41 10.5 20.6 V 691 – Steward Observatory, Kitt Peak-Spacewatch MPS 386814
2005 10 28.32964 03 43 26.69 +21 41 12.9 20.6 V 691 – Steward Observatory, Kitt Peak-Spacewatch MPS 386814
2005 10 28.34722 03 43 25.74 +21 41 15.7 21.1 V 691 – Steward Observatory, Kitt Peak-Spacewatch MPS 386814
2005 11 25.14011 03 14 17.74 +22 12 50.2   691 – Steward Observatory, Kitt Peak-Spacewatch MPS 153953
2005 11 25.15550 03 14 16.74 +22 12 50.4   691 – Steward Observatory, Kitt Peak-Spacewatch MPS 153953
2005 11 25.17091 03 14 15.73 +22 12 50.9   691 – Steward Observatory, Kitt Peak-Spacewatch MPS 153953
2005 11 29.10709 03 10 17.42 +22 13 00.0 20.8 V 691 – Steward Observatory, Kitt Peak-Spacewatch MPS 153953
2005 11 29.11985 03 10 16.70 +22 12 58.7 20.3 V 691 – Steward Observatory, Kitt Peak-Spacewatch MPS 153953
2005 11 29.13260 03 10 15.89 +22 13 00.3 20.5 V 691 – Steward Observatory, Kitt Peak-Spacewatch MPS 153953
2009 11 27.33370 06 12 30.06 +31 36 48.4 20.6 V G96 – Mt. Lemmon Survey MPS 386814
2009 11 27.33808 06 12 29.84 +31 36 49.7 20.2 V G96 – Mt. Lemmon Survey MPS 386814
2009 11 27.35306 06 12 29.12 +31 36 54.5 20.1 V G96 – Mt. Lemmon Survey MPS 386814
2009 11 27.35758 06 12 28.90 +31 36 55.8 20.0 V G96 – Mt. Lemmon Survey MPS 386814
2015 05 19.99162 14 56 02.03 -19 13 36.5 22.1 V W84 – Cerro Tololo-DECam MPS 785131
2015 05 19.99486 14 56 01.84 -19 13 36.4   W84 – Cerro Tololo-DECam MPS 785131
2015 05 19.99804 14 56 01.65 -19 13 35.7   W84 – Cerro Tololo-DECam MPS 785131
2015 05 20.00122 14 56 01.46 -19 13 35.5   W84 – Cerro Tololo-DECam MPS 785132
2015 05 20.99497 14 55 02.92 -19 11 35.7 22.6 V W84 – Cerro Tololo-DECam MPS 785132
2015 05 20.99822 14 55 02.72 -19 11 35.2   W84 – Cerro Tololo-DECam MPS 785132
2015 05 21.00146 14 55 02.55 -19 11 34.9   W84 – Cerro Tololo-DECam MPS 785132
2015 05 21.00469 14 55 02.34 -19 11 34.3   W84 – Cerro Tololo-DECam MPS 785132
2015 05 21.00786 14 55 02.16 -19 11 34.2   W84 – Cerro Tololo-DECam MPS 785132
2015 05 21.32992 14 54 43.207 -19 10 59.69 22.0 w F51 – Pan-STARRS 1, Haleakala MPS 607266
2015 05 21.34210 14 54 42.473 -19 10 58.50 22.1 w F51 – Pan-STARRS 1, Haleakala MPS 607266
2015 05 21.36637 14 54 41.008 -19 10 55.51 22.0 w F51 – Pan-STARRS 1, Haleakala MPS 607266
2015 05 23.98861 14 52 11.06 -19 05 35.2 22.2 V W84 – Cerro Tololo-DECam MPS 785132
2015 05 23.99186 14 52 10.87 -19 05 34.8   W84 – Cerro Tololo-DECam MPS 785132
2015 05 23.99831 14 52 10.50 -19 05 34.1   W84 – Cerro Tololo-DECam MPS 785132
2016 08 02.51961 23 19 47.934 -16 01 41.70 21.3 w F51 – Pan-STARRS 1, Haleakala MPS 721982
2016 08 02.53066 23 19 47.672 -16 01 44.56 21.5 w F51 – Pan-STARRS 1, Haleakala MPS 721982
2016 08 02.54171 23 19 47.387 -16 01 47.57 21.4 w F51 – Pan-STARRS 1, Haleakala MPS 721982
2016 08 02.55276 23 19 47.112 -16 01 50.57 21.5 w F51 – Pan-STARRS 1, Haleakala MPS 721982
2016 08 07.52907 23 17 34.056 -16 25 10.56 21.2 w F51 – Pan-STARRS 1, Haleakala MPS 723401
2016 08 07.53944 23 17 33.718 -16 25 13.53 21.2 w F51 – Pan-STARRS 1, Haleakala MPS 723401
2016 08 07.54979 23 17 33.377 -16 25 16.66 21.4 w F51 – Pan-STARRS 1, Haleakala MPS 723401
2016 08 07.56016 23 17 33.025 -16 25 19.47 21.4 w F51 – Pan-STARRS 1, Haleakala MPS 723401
2016 08 10.46898 23 15 55.944 -16 39 46.83 21.3 w F51 – Pan-STARRS 1, Haleakala MPS 723401
2016 08 10.47931 23 15 55.549 -16 39 50.08 21.1 w F51 – Pan-STARRS 1, Haleakala MPS 723401
2016 08 10.48962 23 15 55.158 -16 39 53.24 21.2 w F51 – Pan-STARRS 1, Haleakala MPS 723401
2016 08 27.41420 23 02 32.905 -18 05 30.08 20.8 w F51 – Pan-STARRS 1, Haleakala MPS 725562
2016 08 27.42646 23 02 32.162 -18 05 33.48 20.9 w F51 – Pan-STARRS 1, Haleakala MPS 725562
2016 08 27.45101 23 02 30.716 -18 05 40.43 21.1 w F51 – Pan-STARRS 1, Haleakala MPS 725562
2018 01 23.34769 10 25 29.02 +22 04 10.7 21.2 G G96 – Mt. Lemmon Survey MPS 861733
2018 01 23.35285 10 25 28.78 +22 04 13.0 21.9 G G96 – Mt. Lemmon Survey MPS 861733
2018 01 23.35799 10 25 28.56 +22 04 14.7 21.4 G G96 – Mt. Lemmon Survey MPS 861733
2018 01 23.36314 10 25 28.33 +22 04 15.6 22.6 G G96 – Mt. Lemmon Survey MPS 861733
2018 03 08.27026 09 43 24.987 +24 53 55.99 21.4 w F51 – Pan-STARRS 1, Haleakala MPS 872651
2018 03 08.28341 09 43 24.341 +24 53 56.06 21.5 w F51 – Pan-STARRS 1, Haleakala MPS 872651
2018 03 08.29662 09 43 23.686 +24 53 56.11 21.5 w F51 – Pan-STARRS 1, Haleakala MPS 872651
2018 03 08.30989 09 43 23.030 +24 53 56.25 21.3 w F51 – Pan-STARRS 1, Haleakala MPS 872651
2020 07 29.58472 00 59 23.465 -01 44 09.47 21.8 w F51 – Pan-STARRS 1, Haleakala MPS 1227962
2020 07 29.59382 00 59 23.747 -01 44 08.17 22.0 w F51 – Pan-STARRS 1, Haleakala MPS 1227962
2020 07 29.60291 00 59 24.041 -01 44 06.68 21.9 w F51 – Pan-STARRS 1, Haleakala MPS 1227962
2020 07 30.51925 00 59 54.568 -01 41 54.98 21.9 w F51 – Pan-STARRS 1, Haleakala MPS 1227962
2020 07 30.52936 00 59 54.888 -01 41 53.55 21.9 w F51 – Pan-STARRS 1, Haleakala MPS 1227962
2020 07 30.53946 00 59 55.189 -01 41 52.16 21.9 w F51 – Pan-STARRS 1, Haleakala MPS 1227962
2020 07 30.54961 00 59 55.505 -01 41 50.66 21.9 w F51 – Pan-STARRS 1, Haleakala MPS 1227962
2020 09 09.58561 00 58 54.680 -01 55 01.14 20.7 i F51 – Pan-STARRS 1, Haleakala MPS 1285120
2020 09 09.59466 00 58 54.333 -01 55 02.48 20.6 i F51 – Pan-STARRS 1, Haleakala MPS 1285120
2020 09 09.60371 00 58 53.977 -01 55 03.98 20.4 i F51 – Pan-STARRS 1, Haleakala MPS 1285120
2020 09 09.61275 00 58 53.613 -01 55 05.45 20.6 i F51 – Pan-STARRS 1, Haleakala MPS 1285120
2020 09 10.38296 00 58 24.38 -01 57 06.2 20.5 G G96 – Mt. Lemmon Survey MPS 1285120
2020 09 10.38815 00 58 24.16 -01 57 07.1 20.8 G G96 – Mt. Lemmon Survey MPS 1285120
2020 09 10.39334 00 58 23.94 -01 57 08.4 21.1 G G96 – Mt. Lemmon Survey MPS 1285120
2020 09 10.39854 00 58 23.70 -01 57 08.9 22.4 G G96 – Mt. Lemmon Survey MPS 1285120
2020 09 18.45779 00 52 21.393 -02 19 48.67 20.8 w F52 – Pan-STARRS 2, Haleakala MPS 1285120
2020 09 18.46941 00 52 20.782 -02 19 50.74 20.7 w F52 – Pan-STARRS 2, Haleakala MPS 1285120
2020 09 18.48101 00 52 20.162 -02 19 52.82 20.6 w F52 – Pan-STARRS 2, Haleakala MPS 1285120
2020 09 18.49265 00 52 19.532 -02 19 54.79 20.7 w F52 – Pan-STARRS 2, Haleakala MPS 1285120
2020 09 23.35096 00 48 01.50 -02 34 09.2 20.6 G G96 – Mt. Lemmon Survey MPS 1285120
2020 09 23.35664 00 48 01.18 -02 34 10.2 20.9 G G96 – Mt. Lemmon Survey MPS 1285120
2020 09 23.36232 00 48 00.85 -02 34 10.8 20.9 G G96 – Mt. Lemmon Survey MPS 1285120
2020 09 23.36801 00 48 00.54 -02 34 12.0 20.5 G G96 – Mt. Lemmon Survey MPS 1285120
2020 10 08.259841 00 33 24.79 -03 10 20.0 20.73 G G96 – Mt. Lemmon Survey MPS 1285120
2020 10 08.265010 00 33 24.46 -03 10 21.2 21.33 G G96 – Mt. Lemmon Survey MPS 1285120
2020 10 08.270170 00 33 24.14 -03 10 21.4 20.97 G G96 – Mt. Lemmon Survey MPS 1285120
2020 10 08.275343 00 33 23.84 -03 10 21.6 20.57 G G96 – Mt. Lemmon Survey MPS 1285120
2020 10 14.31465 00 27 37.002 -03 18 11.77 20.7 w F52 – Pan-STARRS 2, Haleakala MPS 1285120
2020 10 14.32686 00 27 36.293 -03 18 12.35 20.9 w F52 – Pan-STARRS 2, Haleakala MPS 1285120
2020 10 14.33906 00 27 35.584 -03 18 13.10 20.6 w F52 – Pan-STARRS 2, Haleakala MPS 1285120
2020 10 14.35133 00 27 34.877 -03 18 13.73 20.7 w F52 – Pan-STARRS 2, Haleakala MPS 1285120
2020 10 17.235378 00 24 59.43 -03 20 01.3 20.83 G G96 – Mt. Lemmon Survey MPS 1285120
2020 10 17.240530 00 24 59.15 -03 20 01.4 20.70 G G96 – Mt. Lemmon Survey MPS 1285120
2020 10 17.245685 00 24 58.87 -03 20 01.6 20.67 G G96 – Mt. Lemmon Survey MPS 1285120
2020 10 17.250856 00 24 58.55 -03 20 01.6 20.79 G G96 – Mt. Lemmon Survey MPS 1285120
2020 11 17.186400 00 10 40.87 -02 03 39.8 21.70 G G96 – Mt. Lemmon Survey MPS 1328179
2020 11 17.191620 00 10 40.85 -02 03 38.4 21.35 G G96 – Mt. Lemmon Survey MPS 1328179
2020 11 17.196828 00 10 40.84 -02 03 35.7 21.19 G G96 – Mt. Lemmon Survey MPS 1328179
2020 11 17.202040 00 10 40.83 -02 03 34.4 20.93 G G96 – Mt. Lemmon Survey MPS 1328179
2020 12 12.21216 00 20 22.060 +00 53 25.09 21.7 w F51 – Pan-STARRS 1, Haleakala MPS 1328179
2020 12 12.22428 00 20 22.543 +00 53 31.25 21.7 w F51 – Pan-STARRS 1, Haleakala MPS 1328179
2020 12 12.23643 00 20 23.058 +00 53 37.36 21.7 w F51 – Pan-STARRS 1, Haleakala MPS 1328179
2022 02 03.443469 11 53 35.271 +10 44 44.87 22.01 w F52 – Pan-STARRS 2, Haleakala MPS 1550474
2022 02 03.454928 11 53 34.968 +10 44 47.40 22.06 w F52 – Pan-STARRS 2, Haleakala MPS 1550474
2022 02 03.466344 11 53 34.704 +10 44 50.48 21.49 w F52 – Pan-STARRS 2, Haleakala MPS 1550474
2022 02 03.477789 11 53 34.398 +10 44 53.01 21.68 w F52 – Pan-STARRS 2, Haleakala MPS 1550474
2022 03 01.297927 11 35 03.42 +12 50 27.2 21.59 G G96 – Mt. Lemmon Survey MPS 1570937
2022 03 01.303103 11 35 03.09 +12 50 28.3 21.97 G G96 – Mt. Lemmon Survey MPS 1570937
2022 03 01.308288 11 35 02.79 +12 50 30.2 21.65 G G96 – Mt. Lemmon Survey MPS 1570937
2022 03 08.497087 11 27 55.602 +13 24 04.37 21.31 w F52 – Pan-STARRS 2, Haleakala MPS 1579751
2022 03 08.519021 11 27 54.235 +13 24 09.77 21.20 w F52 – Pan-STARRS 2, Haleakala MPS 1579751
2022 03 08.529936 11 27 53.549 +13 24 12.45 21.22 w F52 – Pan-STARRS 2, Haleakala MPS 1579751
2022 03 28.290730 11 09 14.063 +14 20 30.16 21.76 w F52 – Pan-STARRS 2, Haleakala MPS 1587923
2022 03 28.302853 11 09 13.449 +14 20 31.14 21.80 w F52 – Pan-STARRS 2, Haleakala MPS 1587923
2022 03 28.314978 11 09 12.835 +14 20 31.95 21.68 w F52 – Pan-STARRS 2, Haleakala MPS 1587923
2022 03 28.327127 11 09 12.223 +14 20 32.81 21.50 w F52 – Pan-STARRS 2, Haleakala MPS 1587923